Vorticity
9 12 8 6 5 3 6 6 10 10 9 8 9 7 6 9 5 10 11 6 13 4 9 5 6 12 4 5 7 11 6 8 7 7 5 6 4 5 10 1 21 2 -2 16
7 9 14 10 6 2 -1 4 5 7 14 6 11 6 8 8 8 3 4 12 8 11 8 10 7 8 8 5 8 12 11 12 9 19 25 9 1 9 5 3 -6 7 -7 10
5 7 9 14 14 10 5 6 9 3 7 8 7 7 6 8 9 8 8 10 8 6 5 4 11 6 7 7 7 4 4 10 -11 -15 -7 3 9 16 24 15 3 -18 -31 -38
10 5 7 9 13 13 13 12 3 9 4 6 9 13 10 8 8 10 9 8 7 8 9 9 9 9 9 9 9 7 8 3 11 11 10 13 8 2 -6 -7 -0 -6 -28 -20
17 11 5 7 7 15 11 15 13 8 3 6 7 5 8 8 8 8 6 11 13 11 8 8 9 7 8 9 13 11 7 6 1 8 51 45 28 27 23 14 12 6 11 8
9 15 11 6 6 7 13 12 11 14 11 8 7 6 7 9 8 8 5 6 4 6 6 7 6 5 6 -1 -1 4 11 4 -2 21 -8 -2 50 66 59 22 11 14 18 8
4 8 15 11 7 5 6 11 14 10 7 13 12 9 6 8 6 6 7 7 7 9 7 5 5 8 8 7 8 8 -2 3 12 -0 37 21 7 5 -2 3 -1 5 8 12
5 5 7 13 13 8 5 5 7 13 13 9 10 12 16 8 8 8 8 6 7 6 8 9 25 29 31 34 28 14 12 7 -2 2 -3 -14 62 41 -1 26 13 6 5 13
7 5 6 6 11 14 9 6 5 4 6 17 12 9 7 11 12 12 11 8 8 10 7 10 13 7 4 15 14 20 25 11 -13 11 11 1 6 2 3 7 32 29 12 10
7 6 6 5 6 9 12 10 7 6 4 16 2 9 8 11 8 8 9 11 10 11 10 9 19 12 2 9 7 19 11 25 9 3 -7 21 22 8 6 17 8 -1 8 11
11 7 7 6 5 7 7 9 10 9 8 6 3 9 10 9 15 8 3 12 19 14 20 8 11 14 8 10 -2 1 4 15 14 14 0 27 14 2 -0 -15 -5 10 9 7
9 5 6 4 7 7 8 7 9 10 12 -5 -7 -8 -12 7 4 5 11 -2 -9 -9 0 -1 10 -2 -6 -4 -1 22 9 7 -9 -20 -19 -26 -13 21 5 4 8 10 9 9
11 6 8 8 4 5 9 8 4 12 8 12 29 27 16 16 20 16 10 10 13 8 7 3 5 5 3 1 10 18 14 10 -14 4 35 -21 -27 6 13 15 11 9 7 9
10 10 10 10 11 8 7 9 9 -6 17 10 21 29 13 -7 -13 5 2 6 14 10 10 5 3 4 13 2 1 -4 -4 -8 -5 -7 23 23 15 24 14 9 11 8 9 10
10 11 9 10 14 13 11 8 12 10 -7 -9 -12 -7 -23 11 6 4 12 12 -9 -6 6 2 4 6 6 4 7 12 24 28 26 12 17 19 7 3 1 5 4 9 10 8
12 8 8 12 12 15 16 14 2 6 15 10 14 9 5 10 21 32 23 4 -8 13 15 8 14 9 3 8 -5 6 16 6 10 9 1 1 8 4 1 8 12 7 9 10
14 13 11 13 15 13 11 7 7 9 9 2 27 45 42 39 42 44 44 16 0 6 10 3 8 7 0 2 12 0 7 25 23 20 19 21 28 19 14 15 11 12 17 18
10 11 12 12 28 6 7 13 12 14 2 13 27 -9 3 -9 -1 11 10 11 16 16 20 16 17 17 13 11 8 3 9 52 5 -15 8 7 21 17 5 7 8 14 8 7
13 13 11 17 15 15 5 9 18 8 9 4 7 0 7 15 -3 -4 -2 -2 9 19 8 15 25 12 -20 -5 6 15 13 -2 15 19 9 2 2 10 8 13 17 12 10 10
14 16 19 11 8 30 20 7 -0 11 14 9 2 -1 -3 18 18 15 32 37 30 -3 25 36 39 4 28 8 24 17 16 24 28 21 6 12 12 10 8 16 15 11 9 14
14 17 17 17 21 -5 9 34 14 15 13 23 22 42 37 22 23 13 7 3 10 18 31 7 15 -1 31 14 11 11 24 15 10 16 20 26 30 26 16 18 11 14 19 14
14 17 20 11 7 24 22 19 21 8 18 7 -3 14 11 20 27 11 22 26 18 4 16 10 3 13 -2 4 2 9 17 8 10 22 18 9 17 23 20 16 14 17 10 8
18 18 25 25 19 3 -1 1 -12 -6 -3 6 19 16 18 20 18 22 12 13 10 17 14 2 -10 14 7 17 27 14 31 28 49 12 12 20 27 23 16 13 15 9 5 9
21 19 19 3 7 22 33 1 -5 13 7 11 10 12 16 15 23 14 7 14 8 9 10 -20 2 2 7 -2 -3 6 21 37 26 28 28 28 29 16 10 9 7 8 5 -1
5 7 16 29 4 -13 -12 17 30 24 15 1 14 16 14 10 3 18 9 13 15 6 -5 22 27 -2 -1 -1 -6 1 -1 -7 22 34 29 27 16 7 7 10 6 3 2 5
2 -14 -1 9 -5 29 23 4 1 13 23 22 6 2 28 32 10 16 5 3 -17 -22 18 -10 -6 -11 11 5 6 12 29 26 27 20 31 9 2 5 5 3 4 4 3 4
16 12 10 -2 -14 -2 8 -7 -18 -21 -12 -10 33 27 7 24 19 15 -0 -19 17 29 -21 -8 4 19 6 4 19 47 -6 9 34 23 16 15 9 -0 -2 -2 0 5 2 4
Height
3111 3109 3108 3107 3106 3104 3103 3102 3100 3099 3097 3096 3094 3095 3096 3097 3099 3099 3100 3101 3102 3103 3104 3104 3105 3106 3107 3107 3108 3108 3107 3108 3108 3109 3108 3109 3108 3109 3109 3109 3109 3108 3107 3089
3112 3109 3109 3107 3107 3106 3104 3102 3102 3101 3099 3099 3098 3097 3097 3099 3100 3101 3102 3102 3103 3104 3104 3105 3105 3106 3107 3107 3108 3107 3108 3108 3107 3107 3109 3106 3104 3105 3106 3107 3107 3104 3105 3085
3113 3111 3109 3108 3105 3105 3106 3104 3103 3102 3101 3100 3100 3100 3100 3100 3101 3102 3102 3103 3102 3103 3104 3104 3105 3105 3106 3106 3107 3107 3107 3105 3105 3104 3103 3103 3101 3100 3101 3103 3102 3097 3087 3079
3113 3111 3109 3108 3107 3104 3104 3104 3104 3103 3102 3101 3101 3101 3101 3101 3101 3102 3102 3102 3103 3104 3103 3104 3104 3104 3105 3105 3106 3105 3105 3103 3102 3100 3098 3098 3095 3094 3096 3093 3092 3091 3076 3075
3113 3111 3109 3107 3106 3106 3105 3103 3104 3103 3102 3102 3102 3102 3101 3101 3101 3101 3101 3102 3102 3102 3103 3103 3102 3103 3103 3103 3103 3103 3102 3100 3098 3092 3091 3088 3084 3082 3082 3082 3081 3079 3075 3069
3113 3111 3109 3107 3106 3105 3104 3103 3102 3102 3101 3101 3101 3101 3101 3101 3101 3101 3100 3100 3101 3102 3102 3101 3101 3101 3101 3100 3101 3100 3100 3099 3097 3088 3087 3083 3076 3069 3070 3071 3071 3072 3070 3067
3113 3111 3108 3106 3105 3104 3103 3102 3103 3101 3101 3100 3100 3100 3100 3099 3100 3100 3100 3100 3100 3101 3099 3099 3099 3098 3096 3095 3096 3096 3096 3097 3097 3087 3083 3079 3068 3066 3066 3066 3066 3065 3062 3063
3111 3110 3107 3106 3103 3102 3101 3101 3101 3100 3099 3099 3098 3098 3098 3098 3098 3097 3097 3097 3098 3097 3098 3097 3095 3093 3092 3089 3089 3089 3091 3094 3095 3090 3084 3071 3063 3062 3064 3063 3061 3060 3059 3059
3108 3106 3105 3104 3102 3100 3098 3098 3098 3097 3098 3097 3096 3095 3095 3095 3095 3095 3095 3094 3094 3094 3094 3094 3091 3088 3087 3087 3086 3085 3086 3089 3092 3089 3086 3072 3062 3061 3061 3061 3057 3056 3057 3056
3102 3102 3101 3100 3099 3098 3097 3094 3094 3095 3094 3094 3094 3093 3092 3092 3092 3092 3091 3091 3091 3091 3090 3090 3088 3085 3084 3082 3080 3079 3081 3083 3083 3086 3083 3061 3059 3058 3060 3060 3061 3056 3055 3054
3097 3096 3096 3095 3095 3094 3094 3092 3090 3090 3090 3091 3089 3090 3089 3089 3088 3088 3089 3089 3087 3087 3087 3086 3084 3081 3079 3077 3075 3073 3074 3074 3073 3078 3077 3061 3056 3057 3058 3057 3054 3053 3052 3051
3091 3091 3090 3090 3089 3089 3089 3088 3086 3085 3085 3087 3085 3085 3085 3084 3084 3084 3083 3084 3084 3083 3082 3082 3081 3079 3076 3073 3072 3069 3069 3066 3065 3063 3056 3054 3054 3054 3053 3051 3050 3049 3048 3047
3084 3084 3083 3084 3083 3082 3082 3082 3082 3080 3078 3080 3078 3079 3078 3078 3078 3077 3077 3078 3078 3078 3078 3077 3076 3074 3072 3069 3064 3063 3062 3062 3057 3055 3053 3051 3051 3049 3048 3047 3045 3045 3043 3042
3077 3077 3077 3077 3077 3076 3076 3076 3076 3076 3074 3070 3072 3072 3072 3072 3071 3071 3072 3072 3072 3072 3071 3070 3068 3066 3064 3058 3058 3054 3059 3055 3051 3046 3044 3046 3045 3043 3042 3041 3040 3040 3038 3037
3071 3071 3070 3070 3070 3070 3070 3070 3070 3070 3072 3066 3065 3065 3068 3066 3066 3064 3065 3066 3065 3065 3064 3061 3059 3058 3059 3052 3045 3033 3044 3045 3044 3038 3041 3038 3038 3037 3036 3035 3034 3032 3031 3030
3064 3063 3064 3064 3063 3063 3063 3063 3065 3064 3062 3059 3057 3056 3057 3058 3057 3056 3058 3057 3056 3056 3055 3053 3051 3050 3053 3044 3026 3025 3032 3035 3035 3029 3032 3028 3028 3027 3027 3027 3025 3023 3021 3020
3058 3057 3056 3057 3056 3056 3058 3060 3060 3058 3056 3053 3052 3048 3049 3050 3050 3049 3050 3050 3047 3047 3046 3042 3042 3042 3044 3029 3011 3016 3028 3028 3024 3022 3019 3017 3019 3018 3017 3015 3015 3013 3013 3012
3050 3050 3049 3049 3050 3049 3051 3053 3053 3053 3052 3047 3044 3042 3047 3048 3047 3046 3043 3041 3040 3036 3035 3033 3032 3034 3034 3013 3003 3013 3019 3019 3018 3017 3013 3010 3009 3008 3008 3007 3006 3006 3006 3003
3043 3043 3042 3041 3044 3044 3046 3046 3045 3045 3047 3038 3032 3034 3041 3042 3041 3041 3038 3034 3031 3028 3025 3026 3023 3017 3011 3009 3007 3008 3011 3009 3006 3003 3002 3001 3000 3001 3001 2999 2998 2997 2998 2998
3036 3037 3037 3035 3040 3039 3039 3038 3037 3035 3031 3028 3023 3028 3035 3039 3036 3033 3034 3027 3025 3016 3018 3016 3005 2995 3009 3004 3001 2996 2994 2992 2991 2987 2987 2990 2989 2990 2991 2991 2992 2991 2990 2989
3030 3028 3031 3030 3033 3035 3032 3031 3028 3026 3022 3018 3018 3025 3024 3025 3025 3026 3026 3021 3019 3012 3008 3009 2997 2992 3002 2996 2994 2991 2987 2983 2982 2981 2979 2979 2980 2980 2981 2983 2984 2984 2984 2985
3023 3024 3026 3025 3026 3028 3026 3020 3022 3016 3015 3014 3017 3017 3017 3016 3017 3020 3016 3014 3012 3008 3004 2999 2991 2998 2995 2993 2987 2984 2980 2978 2976 2973 2972 2970 2971 2971 2973 2975 2977 2979 2980 2979
3016 3019 3019 3018 3019 3017 3012 3010 3011 3010 3007 3010 3012 3012 3010 3009 3011 3011 3009 3005 3004 3001 2998 2990 2988 2990 2990 2987 2982 2977 2970 2966 2963 2963 2963 2963 2963 2965 2968 2971 2972 2973 2975 2975
3010 3012 3010 3010 3008 3002 3003 3005 3007 3007 3005 3007 3007 3007 3007 3004 3004 3003 3000 2998 2998 2995 2990 2983 2983 2982 2982 2981 2977 2972 2966 2962 2959 2956 2955 2956 2959 2961 2964 2966 2967 2968 2968 2967
3004 3004 3000 2995 2997 2998 3000 3000 3001 3001 3000 3001 3001 3000 2998 2999 2997 2994 2993 2992 2989 2985 2980 2978 2979 2979 2978 2974 2971 2966 2962 2960 2958 2953 2952 2954 2957 2960 2961 2961 2961 2961 2961 2961
2994 2991 2988 2988 2990 2991 2994 2996 2996 2996 2996 2995 2993 2992 2990 2988 2988 2984 2980 2982 2981 2980 2977 2976 2977 2977 2974 2969 2966 2963 2960 2957 2955 2956 2955 2953 2955 2957 2956 2956 2955 2955 2955 2954
2980 2977 2982 2984 2985 2985 2988 2987 2988 2986 2985 2987 2987 2980 2977 2977 2972 2971 2970 2970 2974 2975 2973 2972 2970 2969 2965 2963 2961 2959 2957 2954 2952 2952 2950 2949 2949 2950 2951 2951 2950 2949 2948 2946